Regional Weather Roundup
Issued by NWS Upton, NY

Home | Current Version | Previous Version | Text Only | Print | Product List | Glossary On
Versions: 1 2 3 4 5 6 7 8 9 10 11 12 13 14 15 16 17 18 19 20 21 22 23 24 25 26 27
000
ASUS41 KOKX 281709
RWROKX

REGIONAL WEATHER ROUNDUP
NATIONAL WEATHER SERVICE NEW YORK NY
100 PM EDT SUN MAY 28 2017

NOTE: "FAIR" INDICATES FEW OR NO CLOUDS BELOW 12,000 FEET WITH NO
SIGNIFICANT WEATHER AND/OR OBSTRUCTIONS TO VISIBILITY.

NYZ071-072-176-178-NJZ106-104-281800-
NEW YORK CITY METRO AREA

CITY           SKY/WX    TMP DP  RH WIND       PRES   REMARKS
Central Park   CLOUDY    70  58  65 VRB5      29.99R
Wall St Helipt MOSUNNY   70  55  60 S9        29.98R
Bronx Bot Gard   N/A     70  55  60 SE7       29.99R
LaGuardia APRT CLOUDY    69  55  60 S13G20    29.96R
Kennedy INTL   CLOUDY    67  60  78 SE12      29.99R
Breezy Point     N/A     61 N/A N/A SE9         N/A
Newark/Liberty PTSUNNY   70  55  59 SE10G17   29.96R
Teterboro      MOSUNNY   71  58  63 S10       29.95R
$$

NYZ177-179-078>081-281800-
LONG ISLAND NEW YORK

CITY           SKY/WX    TMP DP  RH WIND       PRES   REMARKS
Jones Beach      N/A     61 N/A N/A S8          N/A
Matinecock PT    N/A     61 N/A N/A NE8         N/A
Farmingdale    MOSUNNY   65  56  72 S9        29.99R
MacArthur/ISP  CLOUDY    66  55  67 S12       29.98R
Shirley        CLOUDY    65  54  67 S10       30.00R
Mt Sinai Harb    N/A    N/A N/A N/A S9          N/A
Westhampton    CLOUDY    64  51  62 S13       30.01R
East Hampton   CLOUDY    62  52  69 S9        29.99S
Montauk          N/A     63  53  70 S6        30.02R
$$

NYZ052-065-067-281800-
HUDSON VALLEY

CITY           SKY/WX    TMP DP  RH WIND       PRES   REMARKS
White Plains   CLOUDY    69  58  67 S8        29.96R
Larchmont Harb   N/A     59 N/A N/A NE8         N/A
Croton O-T Hud   N/A     72 N/A N/A S3          N/A
Newburgh       NOT AVBL
Montgomery     CLOUDY    72  58  61 S8        29.93R
Poughkeepsie   CLOUDY    71  57  61 S6        29.93R
Albany         CLOUDY    71  54  54 SE7       29.92F
$$

NJZ001-105-106-008-010-013-015-019>022-104-281800-
NEW JERSEY

CITY           SKY/WX    TMP DP  RH WIND       PRES   REMARKS
Newark/Liberty PTSUNNY   70  55  59 SE10G17   29.96R
Teterboro      MOSUNNY   71  58  63 S10       29.95R
Caldwell       CLOUDY    73  56  54 S10       29.96R
Somerville     CLOUDY    73  62  68 MISG      29.92R
Linden           N/A     71  56  58 SE10      29.96R
Perth Amboy      N/A     68 N/A N/A E10         N/A
Sussex         CLOUDY    71  56  58 SE9       29.94R
Andover          N/A     71  56  58 VRB6      29.94R
Trenton        CLOUDY    76  59  55 SE12      29.92S
Millville      MOSUNNY   73  61  65 SE12      29.92F
Atlantic City  CLOUDY    71  55  56 SE14      29.94F
Wrightstown    PTSUNNY   74  58  56 SE12      29.91S
Toms River     MOSUNNY   72  56  57 SE14      29.96R
Belmar         PTSUNNY   68  55  63 SE12      29.97R
$$

PAZ047>061-062-071-281800-
EASTERN PENNSYLVANIA

CITY           SKY/WX    TMP DP  RH WIND       PRES   REMARKS
Philadelphia   PTSUNNY   73  59  61 S12       29.92S
Allentown      PTSUNNY   78  54  43 SE9       29.91F
Scranton       CLOUDY    75  54  47 VRB6      29.89F
$$

CTZ002-004>006-009-010-012-RIZ004-006-007-MAZ004-011-015-281800-
SOUTHERN NEW ENGLAND
 IN CT

CITY           SKY/WX    TMP DP  RH WIND       PRES   REMARKS
Bradley INTL   CLOUDY    71  56  58 S8        29.95R
Hartford       CLOUDY    70  57  63 S10       29.96R
Danbury        CLOUDY    67  59  75 S9        29.97R
Wtrbury/Oxford PTSUNNY   66  55  68 S8        30.00R
Bridgeport     CLOUDY    65  56  72 E10       29.98R
Meriden        CLOUDY    69  57  65 S8        29.98R
New Haven      CLOUDY    65  55  70 E10       29.99R
Chester        CLOUDY    66  55  68 SE9       30.00R
Groton         CLOUDY    63  53  70 S10       30.00R
Wilimantic     CLOUDY    71  56  58 S10       29.97S

 IN RI

CITY           SKY/WX    TMP DP  RH WIND       PRES   REMARKS
Providence     CLOUDY    67  56  67 SE15      29.98R
Block Island   CLOUDY    62  52  69 S12       30.01R
Westerly       MOSUNNY   63  51  65 S12       30.01R
 IN MA

CITY           SKY/WX    TMP DP  RH WIND       PRES   REMARKS
Boston         CLOUDY    62  56  80 E15       29.98R
Worcester      CLOUDY    67  51  56 SE7       29.97R
Westfield      CLOUDY    70  58  65 VRB5      29.95R
Provincetown   CLOUDY    63  50  62 SE13      29.99S
Nantucket      CLOUDY    55  47  74 SE13      30.02R
$$

ANZ330-335-338-340-345-350-353-355-281800-
COASTAL MARINE OBSERVATIONS


STATION/POSITION TIME  SKY/WX   TEMP    WIND        PRES    VSBY  WAVE
                                AIR SEA DIR/SP/G                  HT/PER
                 (UTC)          (F)     (DEG/KT/KT) (MB)    (MI)  (FT/S)
NY HARB ENTRANCE 1550            59 59  140/ 10/ 10 1014.3          2/ 8
20 S FIRE ISLAND 1650            58 58  140/ 10/ 12 1014.5          2/ 8
GREAT SOUTH BAY  NOT AVBL
23 SSW MONTAUK P 1550            56 56              1015.7          2/ 8
15 E BARNEGAT LI 1630               60                N/A           2/ 7
HUDSON CANYON    1550            58 56  130/  8/ 10 1014.8          2/ 7
KINGS POINT      1642            65 59  210/ 10/ 11 1014.7
EXECUTION ROCKS  1645            61                   N/A
CENTRAL LI SOUND NOT AVBL
EASTERN LI SOUND NOT AVBL
ROBBINS REEF     1642            63     160/ 12/ 13 1015.2
$$


>>>>>>>>>>>>>>>>>>>>>>>>>>>> KEY <<<<<<<<<<<<<<<<<<<<<<<<<<<
>                                                          <
>     SKY/WX - Sky Condition/Present Weather               <
>     TMP    - Temperature in Fahrenheit                   <
>     DP     - Dew Point in Fahrenheit                     <
>     RH     - Relative Humidity in Percent                <
>     WIND   - Direction (from) and Speed in MPH           <
>     PRES   - Mean Sea Level Pressure (inches of Hg)      <
>     WCI    - Wind Chill Index                            <
>     VSB    - VISIBILITY IN MILES                         <
>     HX     - HEAT INDEX                                  <
>     TC     - TEMPERATURE IN CELSIUS                      <
>     VRB    - VARIABLE WIND DIRECTION                     <
>                                                          <
>>>>>>>>>>>>>>>>>>>>>>>>>>>> KEY <<<<<<<<<<<<<<<<<<<<<<<<<<<




USA.gov is the U.S. government's official web portal to all federal, state and local government web resources and services.